Showing default

LKW-1, 43034

Orbit data source: Space-Track

LKW-1, 43034 is a Chinese payload satellite in SSO that was launched on Sun, 03 Dec 2017 UTC via a CHANG ZHENG 2D launch vehicle from the Jiuquan Satellite Launch Center, China (JSC). Payloads include a variety of satellites, spacecraft, and rockets equipped with specific instruments for various scientific and technological missions. These include communications satellites like Starlink; space stations such as the ISS; scientific satellites like the Hubble; Earth observation satellites from companies like Planet Labs, Umbra, and HawkEye 360; GPS; miniature CubeSats for education and research; and military/defense satellites.

Loading next visibility...
LKW-1 details
Identifier
43034, 2017-077A
Orbit
SSO
Last TLE update7 hours ago
Origin
Flag of CNZLZB/GCDX? (CN / PRC)
ManufacturerCAST?
MissionOperational Defense Imaging
Bus & MotorLKW, Unknown motor
Mass~2,000 kg wet, ~2,000 kg dry
Launch date (UTC)
2017-12-03 (7 years ago)
Launch vehicle
CHANG ZHENG 2D
Launch site
Jiuquan Satellite Launch Center, China (JSC)
Object type
Payload
Rocket body
Debris
Shape & HBRHex Cyl + 3 Pan, 10 m
Radar Cross Section8.135 m², Large (>1 m²)

Expand to show TLE details & history

TLE from 7 hours ago
0 LKW-1
1 43034U 17077A   24361.24899720  .00012273  00000-0  52246-3 0  9990
2 43034  97.1771  50.7141 0001667 142.0240 218.1116 15.23122951392790
Epoch: 2024-12-26T05:58Z
Definitive object data (Epoch: 2024-12-26T05:58:33.358Z)
Latitude0.00008°
Longitude-134.15601°
Altitude500.431 km
Speed7.614 km/s
True Right ascension03h 22m 51s
True Declination0° 00' 00"
Sunlit
Object was in full shadow at TLE epoch
Visualization TLE readout
Latitude32.33568°
Longitude50.66786°
Altitude499.561 km
Speed7.618 km/s
Apparent Right ascension19h 19m 11s
Apparent Declination-5° 00' 04"
Sunlit
Object is in daylight
Visualization observer readout
Local Sidereal Time12:17:16
Azimuth83.832° E
Elevation-15.062°
Doppler factor1
Orbital elements
Apogee altitude494.525 km
Perigee altitude492.234 km
Semi-major axis6,871.517 km
Eccentricity0.0001667
Inclination97.1771°
RAAN50.7141°
Arg. of periapsis142.024°
True anomaly218.09981°
Mean anomaly218.1116°
Eccentric anomaly218.10571°
Mean motion3.81034 °/min
BSTAR0.00052246
Orbital period94.48 mins
Loading maneuver chart data...
Loading historical data...
Loading historical data...
Loading historical data...
Loading historical data...
Loading historical data...
Loading historical data...
Loading historical data...

LKW-1 Visibility forecast

Observer location: undefined°, undefined

Span
Click to sort rows by Start time (UTC) header in descending order
Start Az.
Max El. time (UTC)
Max El. Az.
Max El.
End time (UTC)
End Az.
6 mins2024-12-26 15:59:40.724Z26.567° NE2024-12-26 16:02:40.724Z80.06° E32.766°2024-12-26 16:05:40.724Z165.136° S
4 mins2024-12-27 04:11:40.724Z220.764° SW2024-12-27 04:13:40.724Z276.797° WNW25.551°2024-12-27 04:15:40.724Z318.104° NNW
|